Fairfield, IA

2:32 AM CST on November 23, 2017 (GMT -0600)
Fairfield Municipal

Weather History for KFFL - April, 2014

Change the Weather History Date:

Thursday, April 17, 2014

  Actual Average Record
Temperature  
Mean Temperature 43 °F -  
Max Temperature 51 °F 67 °F 87 °F (1977)
Min Temperature 35 °F 42 °F 26 °F (1983)
Degree Days  
Heating Degree Days 22    
Moisture  
Dew Point 32 °F    
Average Humidity 65    
Maximum Humidity 81    
Minimum Humidity 40    
Precipitation  
Precipitation 0.00 in - - ()
Sea Level Pressure  
Sea Level Pressure 30.20 in    
Wind  
Wind Speed 13 mph (WNW)    
Max Wind Speed 21 mph    
Max Gust Speed 29 mph    
Visibility 10 miles    
Events      
Averages and records for this station are not official NWS values.
T = Trace of Precipitation, MM = Missing Value Source: NWS Daily Summary

Daily Weather History Graph

Daily Weather History Graph

Search for Another Location

Airport or City:

Trip Planner

Search our weather history database for the weather conditions in past years. The results will help you decide how hot, cold, wet, or windy it might be!

Date:

Astronomy

Apr. 17, 2014 Rise Set
Actual Time 6:25 AM CDT 7:49 PM CDT
Civil Twilight 5:56 AM CDT 8:18 PM CDT
Nautical Twilight 5:22 AM CDT 8:53 PM CDT
Astronomical Twilight 4:46 AM CDT 9:29 PM CDT
Moon 10:37 PM CDT (4/17) 7:56 AM CDT (4/17)
Length of Visible Light 14h 21m
Length of Day
13h 24m
Waning Gibbous, 93% of the Moon is Illuminated
Apr 17
Waning Gibbous
Apr 22
Last Quarter
Apr 29
New
May 6
First Quarter
May 14
Full

Hourly Weather History & Observations

Time (CDT) Temp. Windchill Dew Point Humidity Pressure Visibility Wind Dir Wind Speed Gust Speed Precip Events Conditions
12:15 AM 50.0 °F - 26.6 °F 40% 29.94 in 10.0 mi South 20.7 mph 28.8 mph N/A   Clear
12:35 AM 50.0 °F - 26.6 °F 40% 29.95 in 10.0 mi South 17.3 mph 24.2 mph N/A   Clear
12:55 AM 50.0 °F - 28.4 °F 43% 29.96 in 10.0 mi South 16.1 mph 24.2 mph N/A   Partly Cloudy
1:15 AM 50.0 °F - 28.4 °F 43% 29.99 in 10.0 mi SW 13.8 mph 21.9 mph N/A   Clear
1:35 AM 48.2 °F - 33.8 °F 58% 30.01 in 10.0 mi West 17.3 mph - N/A   Clear
1:55 AM 44.6 °F 37.4 °F 35.6 °F 71% 30.01 in 10.0 mi West 16.1 mph - N/A   Clear
2:15 AM 42.8 °F 35.8 °F 35.6 °F 76% 30.02 in 10.0 mi West 13.8 mph - N/A   Clear
2:35 AM 42.8 °F 36.2 °F 35.6 °F 76% 30.04 in 10.0 mi West 12.7 mph - N/A   Clear
2:55 AM 42.8 °F 37.0 °F 37.4 °F 81% 30.04 in 10.0 mi West 10.4 mph - N/A   Mostly Cloudy
3:15 AM 42.8 °F 38.0 °F 37.4 °F 81% 30.06 in 10.0 mi WSW 8.1 mph - N/A   Overcast
3:35 AM 42.8 °F 35.4 °F 37.4 °F 81% 30.06 in 10.0 mi West 15.0 mph - N/A   Overcast
3:55 AM 42.8 °F 35.8 °F 37.4 °F 81% 30.07 in 10.0 mi West 13.8 mph 20.7 mph N/A   Overcast
4:15 AM 41.0 °F 33.1 °F 35.6 °F 81% 30.08 in 10.0 mi West 15.0 mph - N/A   Overcast
4:35 AM 41.0 °F 33.5 °F 35.6 °F 81% 30.09 in 10.0 mi West 13.8 mph - N/A   Overcast
4:55 AM 41.0 °F 33.9 °F 33.8 °F 76% 30.11 in 10.0 mi West 12.7 mph - N/A   Overcast
5:15 AM 39.2 °F 31.6 °F 33.8 °F 81% 30.12 in 10.0 mi West 12.7 mph 18.4 mph N/A   Overcast
5:35 AM 39.2 °F 31.2 °F 33.8 °F 81% 30.12 in 10.0 mi NW 13.8 mph - N/A   Overcast
5:55 AM 39.2 °F 31.2 °F 32.0 °F 75% 30.13 in 10.0 mi WNW 13.8 mph 20.7 mph N/A   Overcast
6:15 AM 37.4 °F 29.3 °F 32.0 °F 81% 30.15 in 10.0 mi WNW 12.7 mph 20.7 mph N/A   Overcast
6:35 AM 37.4 °F 29.3 °F 32.0 °F 81% 30.16 in 10.0 mi WNW 12.7 mph 19.6 mph N/A   Overcast
6:55 AM 37.4 °F 28.9 °F 32.0 °F 81% 30.18 in 10.0 mi WNW 13.8 mph 20.7 mph N/A   Overcast
7:15 AM 37.4 °F 30.3 °F 32.0 °F 81% 30.19 in 10.0 mi West 10.4 mph 17.3 mph N/A   Overcast
7:35 AM 37.4 °F 28.9 °F 32.0 °F 81% 30.19 in 10.0 mi WNW 13.8 mph - N/A   Overcast
7:55 AM 37.4 °F 28.5 °F 32.0 °F 81% 30.20 in 10.0 mi WNW 15.0 mph - N/A   Overcast
8:15 AM 37.4 °F 28.9 °F 32.0 °F 81% 30.20 in 10.0 mi WNW 13.8 mph - N/A   Overcast
8:35 AM 37.4 °F 28.5 °F 32.0 °F 81% 30.21 in 10.0 mi WNW 15.0 mph - N/A   Overcast
8:55 AM 39.2 °F 31.2 °F 32.0 °F 75% 30.22 in 10.0 mi WNW 13.8 mph - N/A   Overcast
9:15 AM 39.2 °F 32.0 °F 32.0 °F 75% 30.23 in 10.0 mi WNW 11.5 mph - N/A   Overcast
9:35 AM 39.2 °F 32.0 °F 30.2 °F 70% 30.24 in 10.0 mi NW 11.5 mph 18.4 mph N/A   Overcast
9:55 AM 39.2 °F 31.2 °F 32.0 °F 75% 30.25 in 10.0 mi NW 13.8 mph - N/A   Overcast
10:15 AM 39.2 °F 31.2 °F 32.0 °F 75% 30.26 in 10.0 mi NW 13.8 mph - N/A   Overcast
10:35 AM 39.2 °F 32.0 °F 30.2 °F 70% 30.27 in 10.0 mi WNW 11.5 mph 19.6 mph N/A   Overcast
10:55 AM 41.0 °F 33.5 °F 30.2 °F 65% 30.27 in 10.0 mi WNW 13.8 mph - N/A   Overcast
11:15 AM 41.0 °F 33.1 °F 30.2 °F 65% 30.28 in 10.0 mi NW 15.0 mph 20.7 mph N/A   Overcast
11:35 AM 42.8 °F 35.4 °F 32.0 °F 66% 30.28 in 10.0 mi WNW 15.0 mph 20.7 mph N/A   Overcast
11:55 AM 42.8 °F 35.8 °F 32.0 °F 66% 30.28 in 10.0 mi NW 13.8 mph - N/A   Overcast
12:15 PM 42.8 °F 37.0 °F 30.2 °F 61% 30.28 in 10.0 mi WNW 10.4 mph 19.6 mph N/A   Mostly Cloudy
12:35 PM 44.6 °F 38.8 °F 32.0 °F 61% 30.28 in 10.0 mi WNW 11.5 mph 18.4 mph N/A   Partly Cloudy
12:55 PM 44.6 °F 38.4 °F 32.0 °F 61% 30.27 in 10.0 mi NW 12.7 mph - N/A   Clear
1:15 PM 46.4 °F 41.1 °F 32.0 °F 57% 30.27 in 10.0 mi NW 11.5 mph 20.7 mph N/A   Clear
1:35 PM 46.4 °F 41.5 °F 32.0 °F 57% 30.27 in 10.0 mi NNW 10.4 mph 19.6 mph N/A   Clear
1:55 PM 48.2 °F - 32.0 °F 54% 30.27 in 10.0 mi WNW 10.4 mph 18.4 mph N/A   Clear
2:15 PM 48.2 °F - 32.0 °F 54% 30.26 in 10.0 mi NW 12.7 mph - N/A   Clear
2:35 PM 48.2 °F - 32.0 °F 54% 30.26 in 10.0 mi North 6.9 mph 15.0 mph N/A   Clear
2:55 PM 51.8 °F - 33.8 °F 50% 30.26 in 10.0 mi WNW 8.1 mph - N/A   Clear
3:15 PM 51.8 °F - 32.0 °F 47% 30.26 in 10.0 mi West 9.2 mph - N/A   Clear
3:35 PM 51.8 °F - 32.0 °F 47% 30.26 in 10.0 mi WNW 9.2 mph 16.1 mph N/A   Clear
3:55 PM 51.8 °F - 32.0 °F 47% 30.25 in 10.0 mi North 10.4 mph 17.3 mph N/A   Clear
4:15 PM 51.8 °F - 32.0 °F 47% 30.25 in 10.0 mi NNW 5.8 mph - N/A   Clear
4:35 PM 51.8 °F - 32.0 °F 47% 30.25 in 10.0 mi NW 8.1 mph - N/A   Clear
4:55 PM 51.8 °F - 32.0 °F 47% 30.25 in 10.0 mi NW 8.1 mph - N/A   Clear
5:15 PM 51.8 °F - 32.0 °F 47% 30.25 in 10.0 mi WNW 6.9 mph - N/A   Clear
5:35 PM 51.8 °F - 32.0 °F 47% 30.26 in 10.0 mi NW 5.8 mph - N/A   Clear
5:55 PM 51.8 °F - 32.0 °F 47% 30.26 in 10.0 mi NW 4.6 mph - N/A   Clear
6:15 PM 51.8 °F - 32.0 °F 47% 30.26 in 10.0 mi WNW 5.8 mph - N/A   Clear
6:35 PM 51.8 °F - 32.0 °F 47% 30.27 in 10.0 mi Calm Calm - N/A   Clear
6:55 PM 51.8 °F - 32.0 °F 47% 30.27 in 10.0 mi WNW 3.5 mph - N/A   Clear
7:15 PM 51.8 °F - 32.0 °F 47% 30.27 in 10.0 mi Calm Calm - N/A   Clear
7:35 PM 50.0 °F - 32.0 °F 50% 30.27 in 10.0 mi Calm Calm - N/A   Clear
7:55 PM 48.2 °F - 32.0 °F 54% 30.27 in 10.0 mi WNW 3.5 mph - N/A   Clear
8:15 PM 48.2 °F - 32.0 °F 54% 30.27 in 10.0 mi NW 3.5 mph - N/A   Clear
8:35 PM 46.4 °F 45.2 °F 32.0 °F 57% 30.28 in 10.0 mi NW 3.5 mph - N/A   Clear
8:55 PM 44.6 °F 41.4 °F 32.0 °F 61% 30.28 in 10.0 mi NNW 5.8 mph - N/A   Clear
9:15 PM 42.8 °F 38.6 °F 32.0 °F 66% 30.29 in 10.0 mi NNW 6.9 mph - N/A   Clear
9:35 PM 41.0 °F 36.4 °F 30.2 °F 65% 30.29 in 10.0 mi NNW 6.9 mph - N/A   Clear
9:55 PM 39.2 °F 34.2 °F 30.2 °F 70% 30.29 in 10.0 mi North 6.9 mph - N/A   Clear
10:15 PM 39.2 °F 34.2 °F 30.2 °F 70% 30.29 in 10.0 mi North 6.9 mph - N/A   Clear
10:35 PM 37.4 °F 31.4 °F 30.2 °F 75% 30.29 in 10.0 mi North 8.1 mph - N/A   Clear
10:55 PM 37.4 °F 31.4 °F 30.2 °F 75% 30.29 in 10.0 mi North 8.1 mph - N/A   Clear
11:15 PM 35.6 °F 28.6 °F 30.2 °F 81% 30.29 in 10.0 mi North 9.2 mph - N/A   Clear
11:35 PM 35.6 °F 30.7 °F 30.2 °F 81% 30.29 in 10.0 mi North 5.8 mph - N/A   Clear
11:55 PM 35.6 °F 28.6 °F 30.2 °F 81% 30.30 in 10.0 mi North 9.2 mph - N/A   Clear